CAPE
2 2 1 1 1 1 2 3 1 0 1 1 1 1 1 0 0 0 0 0 0 0 0 0 0 0 0 32 161 76 123 100 184 144 344 183 91 74 194 689 767 646 653 548 911
2 1 2 1 0 1 1 2 2 2 0 0 0 1 0 0 0 0 0 0 0 0 0 0 0 0 0 2 160 191 115 76 123 219 227 316 289 390 752 792 812 853 671 763 849
1 1 1 1 1 1 1 2 1 0 0 0 0 0 0 0 0 0 0 0 29 167 0 0 0 0 0 0 34 44 74 94 160 275 400 443 348 559 592 620 497 615 845 891 838
3 2 3 1 1 2 1 2 1 2 1 0 0 0 0 0 0 0 462 732 15 0 0 0 0 0 0 0 0 34 0 98 204 462 537 589 731 599 584 709 526 521 658 779 873
2 3 1 1 1 2 2 1 1 1 2 0 0 0 0 0 0 0 11 164 0 0 0 0 0 0 0 0 0 0 0 0 109 301 660 692 829 939 875 800 620 642 581 728 806
1 2 1 1 1 1 1 0 0 1 2 0 0 1 0 0 0 0 0 0 0 0 0 0 0 0 0 0 0 0 0 0 98 128 405 685 760 1129 784 906 775 742 701 693 663
0 1 1 1 1 1 1 1 1 1 0 0 0 0 0 0 0 0 0 0 0 0 0 0 0 0 0 0 0 0 0 0 0 1 97 613 759 1285 941 1017 925 776 679 684 636
1 1 1 1 1 1 1 1 1 0 0 0 0 0 0 0 0 0 0 0 0 0 0 0 0 0 0 0 0 0 0 0 0 0 58 256 13 187 1108 1154 1107 931 821 792 775
1 1 1 1 1 1 0 0 0 0 0 0 0 0 0 0 0 0 0 0 0 0 0 0 0 0 0 0 0 0 0 0 0 0 0 174 93 225 809 1148 1195 1192 1063 877 915
3 2 2 2 1 2 0 0 0 0 0 0 0 0 0 0 0 0 0 0 0 0 0 0 0 0 0 0 0 0 0 0 0 0 0 0 0 0 58 797 988 1313 1332 1223 987
2 3 4 4 3 1 0 0 0 0 0 0 0 0 0 0 0 0 0 0 0 0 0 0 0 0 0 0 0 0 0 0 0 0 0 0 0 0 0 368 679 1127 1443 1424 1297
5 6 4 3 1 0 0 0 0 0 0 0 0 0 0 0 0 0 0 0 0 0 0 0 0 0 0 0 0 0 0 0 0 0 0 0 0 0 0 9 333 704 1124 1382 1425
7 6 3 0 0 0 0 0 0 0 0 0 0 0 0 0 0 0 0 0 0 0 0 0 0 0 0 0 0 0 0 0 0 0 0 0 0 0 0 47 267 730 809 1110 1289
4 4 3 0 0 0 0 0 0 0 0 0 0 0 0 0 0 0 0 0 0 0 0 0 0 0 0 0 0 0 0 0 0 0 0 0 0 0 0 0 0 16 415 854 1059
4 2 1 2 0 0 0 0 0 0 0 0 0 0 0 0 0 0 0 0 0 0 0 0 0 0 0 0 0 0 0 0 0 0 0 0 0 0 0 0 0 32 0 340 870
2 1 0 0 0 0 0 0 0 0 0 0 0 0 0 0 0 0 0 0 0 0 0 0 0 0 0 0 0 0 0 0 0 0 0 0 0 6 0 0 6 101 12 357 788
2 1 1 0 0 0 0 0 0 2 0 0 0 0 0 0 0 0 0 0 0 0 0 0 0 0 0 0 0 0 0 14 25 15 2 0 0 0 0 0 48 234 17 225 1038
0 0 0 0 0 0 0 0 0 0 0 0 0 0 0 0 0 0 0 0 0 0 0 0 0 0 0 0 0 0 0 9 20 37 26 0 0 3 0 0 57 234 469 427 1016
0 0 0 0 0 0 0 0 5 0 0 0 0 0 0 0 0 0 0 0 0 0 0 0 0 0 0 0 0 1 0 0 0 1 0 3 0 3 0 0 15 53 278 616 1090
0 0 0 0 0 0 0 0 0 0 0 0 0 0 0 0 0 0 0 0 0 0 0 0 0 0 0 0 0 0 0 1 11 15 23 48 1 25 8 19 18 50 144 205 724
0 0 0 0 0 0 0 0 0 0 0 0 0 0 0 0 0 0 0 0 0 0 0 0 0 0 0 3 12 0 0 0 0 5 31 71 106 37 12 71 107 150 282 320 657
0 0 0 0 0 0 0 0 0 0 0 0 0 0 0 0 0 0 0 0 0 0 0 0 0 0 0 0 0 0 0 0 37 50 68 29 52 0 0 64 134 252 524 756 1115
0 0 0 0 0 0 0 0 0 0 0 0 0 0 0 0 0 0 0 0 0 0 0 0 0 0 0 0 0 0 0 2 6 13 4 46 91 81 64 108 438 644 759 859 1037
0 0 0 0 0 0 0 0 0 0 0 0 0 0 0 0 0 0 0 0 0 0 0 0 0 0 0 0 0 0 0 0 0 0 0 26 84 130 210 743 491 857 1144 1162 1254
0 0 0 0 0 0 0 0 0 0 0 0 0 0 0 0 0 0 0 0 0 0 0 0 0 0 0 0 0 0 0 0 0 0 0 0 3 144 311 632 938 1097 1216 1321 1280
0 0 0 0 0 0 0 0 0 0 0 0 0 0 0 0 0 0 0 0 0 0 0 0 0 0 0 0 0 0 0 0 0 0 0 0 0 1 175 570 1146 968 993 1163 1138
0 0 0 0 0 0 0 0 0 0 0 0 0 0 0 0 0 0 0 0 0 0 0 0 0 0 0 0 0 0 0 0 0 0 9 0 400 408 398 299 600 582 603 668 699
CIN
-0 -0 -0 -0 -0 -0 -0 -0 -0 -0 -0 -0 -0 -0 -0 -0 -0 -0 -0 -0 -0 -0 -0 -0 -0 -0 -0 -43 -56 -81 -11 -4 -0 -0 -5 -43 -18 -35 -22 -5 -8 -10 -5 -13 -27
-0 -0 -0 -0 -0 -0 -0 -0 -0 -0 -0 -0 -0 -0 -0 -0 -0 -0 -0 -0 -0 -0 -0 -0 -0 -0 -0 -11 -27 -5 -2 -3 -4 -0 -1 -14 -10 -12 -4 -1 -0 -5 -23 -37 -25
-0 -0 -0 -0 -0 -0 -0 -0 -0 -0 -0 -0 -0 -0 -0 -0 -0 -0 -0 -0 -217 -164 -0 -0 -0 -0 -0 -0 -26 -28 -9 -13 -4 -6 -9 -11 -23 -12 -0 -0 -0 -0 -9 -26 -13
-0 -0 -0 -0 -0 -0 -0 -0 -0 -0 -0 -0 -0 -0 -0 -0 -0 -0 -402 -406 -242 -0 -0 -0 -0 -0 -0 -0 -0 -11 -0 -19 -12 -15 -14 -12 -22 -16 -10 -2 -14 -8 -18 -36 -9
-0 -0 -0 -0 -0 -0 -0 -0 -0 -0 -0 -0 -0 -0 -0 -0 -0 -0 -357 -284 -0 -0 -0 -0 -0 -0 -0 -0 -0 -0 -0 -0 -28 -26 -17 -31 -27 -18 -14 -16 -25 -18 -24 -29 -12
-0 -0 -0 -0 -0 -0 -0 -0 -0 -0 -0 -0 -0 -0 -0 -0 -0 -0 -0 -0 -0 -0 -0 -0 -0 -0 -0 -0 -0 -0 -0 -0 -18 -20 -24 -25 -14 -41 -21 -22 -30 -19 -14 -21 -20
-0 -0 -0 -0 -0 -0 -0 -0 -0 -0 -0 -0 -0 -0 -0 -0 -0 -0 -0 -0 -0 -0 -0 -0 -0 -0 -0 -0 -0 -0 -0 -0 -0 -1 -16 -30 -7 -21 -22 -31 -29 -26 -14 -13 -18
-0 -0 -0 -0 -0 -0 -0 -0 -0 -0 -0 -0 -0 -0 -0 -0 -0 -0 -0 -0 -0 -0 -0 -0 -0 -0 -0 -0 -0 -0 -0 -0 -0 -0 -40 -32 -30 -8 -47 -40 -27 -27 -23 -14 -13
-0 -0 -0 -0 -0 -0 -0 -0 -0 -0 -0 -0 -0 -0 -0 -0 -0 -0 -0 -0 -0 -0 -0 -0 -0 -0 -0 -0 -0 -0 -0 -0 -0 -0 -0 -30 -7 -21 -65 -47 -27 -24 -25 -22 -8
-0 -0 -0 -0 -0 -0 -0 -0 -0 -0 -0 -0 -0 -0 -0 -0 -0 -0 -0 -0 -0 -0 -0 -0 -0 -0 -0 -0 -0 -0 -0 -0 -0 -0 -0 -0 -0 -0 -16 -52 -32 -27 -23 -27 -16
-0 -0 -0 -0 -0 -0 -0 -0 -0 -0 -0 -0 -0 -0 -0 -0 -0 -0 -0 -0 -0 -0 -0 -0 -0 -0 -0 -0 -0 -0 -0 -0 -0 -0 -0 -0 -0 -0 -0 -38 -44 -28 -27 -21 -21
-0 -0 -0 -0 -1 -0 -0 -0 -0 -0 -0 -0 -0 -0 -0 -0 -0 -0 -0 -0 -0 -0 -0 -0 -0 -0 -0 -0 -0 -0 -0 -0 -0 -0 -0 -0 -0 -0 -0 -45 -33 -39 -38 -23 -11
-0 -0 -2 -0 -0 -0 -0 -0 -0 -0 -0 -0 -0 -0 -0 -0 -0 -0 -0 -0 -0 -0 -0 -0 -0 -0 -0 -0 -0 -0 -0 -0 -0 -0 -0 -0 -0 -0 -0 -76 -59 -54 -50 -40 -23
-0 -1 -2 -0 -0 -0 -0 -0 -0 -0 -0 -0 -0 -0 -0 -0 -0 -0 -0 -0 -0 -0 -0 -0 -0 -0 -0 -0 -0 -0 -0 -0 -0 -0 -0 -0 -0 -0 -0 -0 -0 -71 -50 -54 -49
-0 -1 -2 -0 -0 -0 -0 -0 -0 -0 -0 -0 -0 -0 -0 -0 -0 -0 -0 -0 -0 -0 -0 -0 -0 -0 -0 -0 -0 -0 -0 -0 -0 -0 -0 -0 -0 -0 -0 -0 -0 -54 -0 -50 -63
-0 -1 -1 -0 -0 -0 -0 -0 -0 -0 -0 -0 -0 -0 -0 -0 -0 -0 -0 -0 -0 -0 -0 -0 -0 -0 -0 -0 -0 -0 -0 -0 -0 -0 -0 -0 -0 -0 -0 -0 -6 -37 -66 -53 -52
-0 -0 -0 -0 -0 -0 -0 -0 -0 -75 -0 -0 -0 -0 -0 -0 -0 -0 -0 -0 -0 -0 -0 -0 -0 -0 -0 -0 -0 -0 -0 -0 -0 -0 -0 -0 -0 -0 -0 -0 -38 -48 -84 -62 -50
-0 -0 -0 -0 -0 -0 -0 -0 -0 -0 -0 -0 -0 -0 -0 -0 -0 -0 -0 -0 -0 -0 -0 -0 -0 -0 -0 -0 -0 -0 -0 -0 -0 -0 -0 -0 -0 -0 -0 -0 -44 -28 -52 -61 -35
-0 -0 -0 -0 -0 -0 -0 -0 -156 -0 -0 -0 -0 -0 -0 -0 -0 -0 -0 -0 -0 -0 -0 -0 -0 -0 -0 -0 -0 -0 -0 -0 -0 -0 -0 -0 -0 -0 -0 -0 -22 -28 -21 -27 -42
-0 -0 -0 -0 -0 -0 -0 -0 -0 -0 -0 -0 -0 -0 -0 -0 -0 -0 -0 -0 -0 -0 -0 -0 -0 -0 -0 -0 -0 -0 -0 -0 -0 -0 -0 -0 -2 -0 -1 -12 -15 -17 -22 -41 -38
-0 -0 -0 -0 -0 -0 -0 -0 -0 -0 -0 -0 -0 -0 -0 -0 -0 -0 -0 -0 -0 -0 -0 -0 -0 -0 -0 -0 -0 -0 -0 -0 -0 -0 -0 -0 -0 -2 -9 -14 -28 -27 -44 -61 -66
-0 -0 -0 -0 -0 -0 -0 -0 -0 -0 -0 -0 -0 -0 -0 -0 -0 -0 -0 -0 -0 -0 -0 -0 -0 -0 -0 -0 -0 -0 -0 -0 -0 -0 -0 -0 -0 -0 -0 -39 -63 -74 -89 -114 -120
-0 -0 -0 -0 -0 -0 -0 -0 -0 -0 -0 -0 -0 -0 -0 -0 -0 -0 -0 -0 -0 -0 -0 -0 -0 -0 -0 -0 -0 -0 -0 -34 -20 -6 -5 -0 -0 -27 -48 -49 -81 -102 -135 -137 -177
-0 -0 -0 -0 -0 -0 -0 -0 -0 -0 -0 -0 -0 -0 -0 -0 -0 -0 -0 -0 -0 -0 -0 -0 -0 -0 -0 -0 -0 -0 -0 -0 -0 -0 -0 -0 -0 -1 -10 -61 -77 -98 -131 -147 -174
-0 -0 -0 -0 -0 -0 -0 -0 -0 -0 -0 -0 -0 -0 -0 -0 -0 -0 -0 -0 -0 -0 -0 -0 -0 -0 -0 -0 -0 -0 -0 -0 -0 -0 -0 -0 -0 -0 -15 -65 -83 -108 -141 -160 -188
-0 -0 -0 -0 -0 -0 -0 -0 -0 -0 -0 -0 -0 -0 -0 -0 -0 -0 -0 -0 -0 -0 -0 -0 -0 -0 -0 -0 -0 -0 -0 -0 -0 -0 -0 -0 -0 -0 -6 -45 -46 -98 -129 -149 -194
-0 -0 -0 -0 -0 -0 -0 -0 -0 -0 -0 -0 -0 -0 -0 -0 -0 -0 -0 -0 -0 -0 -0 -0 -0 -0 -0 -0 -0 -0 -0 -0 -0 -0 -8 -0 -1 -20 -0 -20 -49 -93 -114 -153 -184
Wind_Speed
11 11 11 11 11 11 11 12 12 12 12 13 14 14 13 14 16 6 5 5 2 7 5 2 6 3 4 2 2 1 1 9 10 10 7 5 5 5 2 3 2 4 1 9 20
11 12 12 11 11 12 12 12 12 14 13 13 14 14 13 12 9 8 6 3 6 7 6 4 3 6 1 2 3 5 6 9 6 6 8 6 3 5 5 5 6 7 5 15 21
11 12 12 12 12 12 12 12 13 13 14 14 14 14 13 14 8 5 6 3 4 7 7 4 5 5 2 1 4 4 7 6 5 4 2 3 5 3 4 4 1 2 10 16 19
11 11 12 12 12 11 12 12 13 14 15 14 15 15 15 6 4 5 8 6 8 8 8 4 5 3 3 5 6 4 6 5 4 1 2 1 1 4 6 3 3 2 11 17 19
11 11 12 12 12 12 11 12 12 13 14 14 14 14 9 8 3 5 3 7 10 8 7 4 4 5 4 6 3 7 8 6 4 3 5 2 5 6 6 4 3 8 12 16 16
12 12 12 12 12 12 12 12 12 13 13 13 12 14 7 10 5 6 3 9 6 8 4 4 4 5 3 5 6 9 10 6 4 3 5 7 5 3 4 8 8 10 13 14 15
12 12 12 12 12 12 12 12 12 12 12 11 9 7 7 5 2 2 5 3 5 4 3 1 3 7 5 3 8 8 5 5 8 6 5 7 11 7 4 10 11 11 12 13 14
13 12 12 12 12 12 13 13 13 13 11 8 7 7 5 3 1 5 6 5 4 2 3 2 3 5 5 4 6 5 4 4 9 6 4 7 5 8 7 11 12 13 13 13 15
13 12 12 12 12 12 12 15 13 7 5 5 8 6 2 4 7 7 9 4 7 5 2 3 5 5 7 10 9 4 6 7 5 4 8 4 11 6 5 10 11 13 15 15 15
12 11 11 11 11 11 13 9 1 6 6 5 4 7 5 4 7 8 5 6 4 8 7 8 7 10 9 9 6 4 9 6 9 7 7 11 14 8 6 11 12 13 14 16 18
13 11 10 9 8 8 11 6 7 7 8 5 5 3 6 5 6 8 8 7 6 9 12 7 10 11 9 7 5 9 10 12 8 3 11 7 11 13 5 12 13 14 15 17 18
12 10 9 8 6 6 7 6 5 6 3 5 6 5 4 2 7 10 8 10 8 11 5 7 13 12 2 5 7 8 10 10 6 2 10 10 14 13 9 9 12 14 16 17 17
12 9 7 6 4 5 7 4 1 5 6 6 3 5 5 7 3 12 15 9 7 8 10 12 5 5 8 9 10 12 10 8 10 14 7 9 9 2 2 4 8 11 14 16 17
12 9 5 2 4 4 5 3 5 4 7 7 7 5 8 5 6 4 11 9 6 7 4 8 5 7 8 8 8 13 2 6 9 12 11 9 6 5 2 2 4 8 12 15 17
12 7 5 11 3 5 6 4 5 6 6 5 7 5 6 8 8 8 7 7 4 5 7 7 7 9 9 8 3 6 2 9 13 14 12 5 7 9 2 7 12 6 4 10 15
11 5 5 6 5 3 4 3 5 8 5 7 6 9 13 8 5 8 10 8 3 7 10 11 5 7 10 5 8 5 12 16 10 12 11 8 7 7 7 11 13 8 2 6 13
11 8 9 2 3 1 4 6 7 6 4 8 7 11 13 9 7 10 12 13 8 8 8 5 12 13 9 12 13 10 15 7 6 6 4 5 9 5 7 8 11 9 1 5 12
6 13 10 5 2 4 6 7 6 2 3 5 5 10 7 9 5 6 7 10 7 8 9 6 9 9 6 12 2 9 10 8 5 5 7 5 4 7 4 3 7 9 4 3 10
6 5 4 3 7 5 7 8 4 2 2 4 10 12 9 9 3 7 4 3 3 4 6 5 4 5 5 4 8 8 9 7 11 8 8 5 2 10 5 2 5 9 8 5 4
4 5 4 4 6 7 7 3 3 3 3 5 6 4 8 7 8 6 6 2 2 4 6 3 7 4 6 4 8 11 7 8 9 8 11 3 4 7 4 2 5 8 8 8 7
6 4 5 3 5 7 5 5 2 4 3 4 2 5 4 3 2 2 4 6 3 4 2 5 5 5 6 9 4 6 10 9 10 9 11 12 6 5 3 2 7 10 10 11 11
4 3 5 4 6 2 4 2 1 3 2 3 3 5 5 2 1 1 2 5 4 5 5 4 8 11 14 13 6 11 14 11 11 12 9 9 12 3 3 7 11 11 11 12 12
0 5 4 5 4 6 4 5 6 2 5 2 4 5 2 3 2 0 2 5 4 4 4 4 7 10 13 12 8 8 2 7 10 11 15 16 10 9 10 7 10 12 12 11 12
4 5 5 3 1 2 6 3 5 6 8 6 5 2 3 2 1 0 4 4 3 4 3 3 12 13 13 16 12 12 13 10 11 11 14 15 12 10 11 12 11 12 12 12 12
4 4 6 5 4 2 2 1 4 3 3 3 4 3 2 4 5 4 2 3 2 3 4 6 10 11 13 16 17 18 20 19 20 19 20 18 21 14 9 10 9 10 11 12 13
4 4 3 2 2 4 3 2 2 6 3 3 1 2 2 3 4 5 4 1 3 3 3 8 8 7 15 15 13 16 17 18 18 18 19 19 18 12 4 8 8 8 10 12 13
3 1 6 2 4 6 3 3 3 1 3 4 2 4 4 4 6 7 7 8 8 9 10 7 7 6 11 3 10 13 8 7 11 11 9 11 11 7 5 7 7 10 11 12 14
Wind_Direction
350 348 344 342 340 339 337 336 334 334 334 331 332 331 326 319 300 229 264 32 321 170 223 212 233 273 257 54 38 275 44 55 49 41 87 143 196 174 169 231 214 153 47 109 146
349 345 344 338 337 336 334 332 334 335 332 331 330 328 322 322 280 253 32 57 270 174 234 272 287 316 115 52 75 340 35 27 8 35 57 158 196 163 208 187 184 164 109 133 153
345 344 341 338 335 333 332 329 331 329 329 329 328 325 317 308 265 97 35 261 222 236 277 296 287 308 25 34 47 42 18 4 39 359 3 126 212 224 255 227 23 163 147 154 162
341 342 336 335 333 330 328 326 325 328 327 326 325 322 316 265 244 80 344 251 211 269 260 276 260 301 2 37 47 15 20 344 344 129 236 243 112 229 255 17 13 119 151 162 173
336 336 334 331 329 327 323 321 320 319 320 322 321 320 289 230 267 31 317 129 183 217 246 282 299 326 12 351 349 5 360 334 310 276 252 213 257 284 268 243 163 132 154 167 178
335 331 330 327 325 324 321 317 315 313 312 314 314 308 261 243 83 31 99 157 190 210 208 254 357 357 314 353 351 333 327 326 345 316 259 275 302 280 123 158 163 163 161 169 179
332 328 327 325 323 321 318 314 309 305 301 303 302 288 254 273 66 22 180 192 183 255 228 108 330 293 336 305 351 323 313 113 28 3 325 314 234 220 154 168 171 177 171 169 179
330 327 324 324 322 320 316 308 302 295 289 280 271 257 269 104 279 232 189 166 204 221 308 18 296 297 307 304 251 301 246 338 48 349 54 301 324 89 167 188 184 182 178 178 179
328 324 321 321 321 318 312 306 296 274 234 245 234 259 156 141 211 165 194 193 165 180 187 292 264 299 245 266 272 185 321 349 10 351 318 273 313 87 167 201 198 191 184 188 183
324 322 317 314 316 318 308 285 61 178 200 223 269 245 197 131 137 154 158 176 180 160 180 221 235 249 224 250 305 359 317 315 341 340 309 291 286 300 196 214 215 200 198 194 194
326 320 312 306 311 325 301 191 200 178 211 315 88 348 99 108 168 186 174 179 179 213 222 197 246 233 256 36 322 296 287 298 323 6 321 306 292 297 261 213 227 218 209 202 204
320 312 300 299 300 310 272 251 17 359 213 222 250 265 220 310 169 169 191 209 212 226 218 215 235 258 311 253 269 268 272 285 321 249 299 301 296 290 276 239 234 223 222 216 201
319 309 299 292 302 241 242 247 344 308 257 140 177 223 190 212 194 167 198 208 226 219 222 259 80 23 230 234 239 240 265 309 323 318 276 290 291 316 306 290 250 240 231 220 211
319 312 293 236 245 147 209 152 224 303 237 124 161 142 185 236 192 128 203 200 207 238 207 256 234 229 227 239 250 254 119 300 288 310 318 329 317 95 37 318 233 249 213 217 210
318 306 253 230 4 218 79 308 217 218 195 126 122 105 161 227 122 162 174 203 221 156 237 88 184 210 232 240 229 288 337 296 298 288 284 288 258 116 162 6 350 334 233 195 198
316 283 189 182 222 309 296 183 221 228 109 130 127 168 174 194 147 134 182 230 314 241 229 268 249 268 259 269 225 299 273 264 250 262 261 76 302 145 42 349 349 0 239 179 183
308 221 205 261 73 321 234 205 219 271 154 148 149 174 190 172 148 179 185 201 227 229 201 238 233 213 246 234 219 236 256 268 229 202 4 71 286 328 34 14 355 4 109 189 177
357 150 202 278 288 301 211 226 241 93 109 127 173 169 181 165 168 172 195 222 201 280 287 302 147 185 172 234 16 215 295 296 295 314 349 147 263 102 29 19 9 42 44 179 193
170 191 182 164 212 260 241 229 79 105 34 155 167 174 144 165 228 191 216 341 14 286 282 307 180 129 206 248 257 130 227 352 292 216 259 278 180 238 164 142 74 55 42 70 192
233 195 90 102 169 230 249 43 126 5 320 219 198 274 164 131 195 221 180 68 94 7 289 40 280 88 89 243 206 262 7 236 215 265 264 228 262 271 320 4 360 41 42 36 26
239 191 95 182 239 232 239 69 95 74 319 301 133 148 87 110 18 112 103 105 36 56 299 309 253 261 277 239 298 179 226 215 295 295 287 277 262 103 249 58 2 18 19 24 8
278 168 136 234 213 266 176 22 253 61 104 103 52 59 57 54 77 133 142 42 35 344 314 31 300 281 280 301 269 271 282 282 265 261 233 296 293 64 314 69 359 10 20 17 15
158 106 164 256 210 178 129 117 44 65 49 70 86 27 54 91 244 218 100 103 39 334 357 16 265 283 271 230 193 246 207 268 283 280 266 279 276 81 58 20 10 10 10 19 17
247 157 149 187 345 276 160 133 125 52 67 60 95 133 162 177 89 173 198 126 333 329 44 245 267 266 280 308 323 283 277 259 280 277 281 272 272 279 28 356 352 5 9 11 19
343 62 2 161 130 129 228 208 164 131 86 33 108 62 4 264 252 261 234 274 165 106 206 287 275 286 281 283 280 279 278 275 270 273 269 285 292 302 18 344 346 10 7 11 15
345 318 160 80 141 207 163 113 175 127 328 106 167 89 329 286 329 319 315 268 311 160 273 296 280 283 279 270 276 276 270 269 272 275 272 272 273 301 42 353 360 15 16 16 13
31 121 290 162 184 233 93 116 99 156 81 47 14 272 237 62 344 320 302 297 286 283 284 277 278 262 278 339 291 265 276 285 303 280 333 286 36 5 7 354 15 8 13 11 6